Satellite: AUBIESAT Catalog number: 37854 Epoch time: 13247.32182809 Element set: 576 Inclination: 101.7044 deg RA of node: 138.6785 deg Eccentricity: 0.0232970 Arg of perigee: 158.8028 deg Mean anomaly: 323.6036 deg Mean motion: 14.84964056 rev/day Decay rate: 3.190e-05 rev/day^2 Epoch rev: 10020 Checksum: 299
Satellite: HRBE Catalog number: 37855 Epoch time: 13248.74465770 Element set: 582 Inclination: 101.7036 deg RA of node: 140.4619 deg Eccentricity: 0.0234011 Arg of perigee: 155.3307 deg Mean anomaly: 244.0104 deg Mean motion: 14.84605585 rev/day Decay rate: 2.517e-05 rev/day^2 Epoch rev: 10040 Checksum: 268
Satellite: RS-39 Catalog number: 38051 Epoch time: 13248.78578667 Element set: 764 Inclination: 051.6346 deg RA of node: 180.9192 deg Eccentricity: 0.0010818 Arg of perigee: 190.3256 deg Mean anomaly: 208.8898 deg Mean motion: 15.34794719 rev/day Decay rate: 1.2267e-04 rev/day^2 Epoch rev: 9015 Checksum: 351
Satellite: E-STAR Catalog number: 38079 Epoch time: 13248.68060747 Element set: 422 Inclination: 069.4763 deg RA of node: 348.4232 deg Eccentricity: 0.0581233 Arg of perigee: 029.6324 deg Mean anomaly: 082.5453 deg Mean motion: 14.54308009 rev/day Decay rate: 3.8061e-04 rev/day^2 Epoch rev: 8141 Checksum: 301
Satellite: GOLIAT Catalog number: 38085 Epoch time: 13248.65675250 Element set: 351 Inclination: 069.4763 deg RA of node: 351.3381 deg Eccentricity: 0.0591393 Arg of perigee: 031.0121 deg Mean anomaly: 332.4632 deg Mean motion: 14.51841447 rev/day Decay rate: 3.5261e-04 rev/day^2 Epoch rev: 8133 Checksum: 285
Satellite: HORYU-2 Catalog number: 38340 Epoch time: 13248.09461332 Element set: 602 Inclination: 098.2235 deg RA of node: 196.4749 deg Eccentricity: 0.0013084 Arg of perigee: 006.1505 deg Mean anomaly: 353.9855 deg Mean motion: 14.71132757 rev/day Decay rate: 8.11e-06 rev/day^2 Epoch rev: 6986 Checksum: 301
Satellite: RS-40 Catalog number: 38736 Epoch time: 13248.08792753 Element set: 365 Inclination: 082.4769 deg RA of node: 105.3177 deg Eccentricity: 0.0021383 Arg of perigee: 149.4402 deg Mean anomaly: 210.7934 deg Mean motion: 12.42870561 rev/day Decay rate: 1.0e-07 rev/day^2 Epoch rev: 5017 Checksum: 292
Satellite: PROITERES Catalog number: 38756 Epoch time: 13248.74511327 Element set: 98 Inclination: 098.2482 deg RA of node: 327.2521 deg Eccentricity: 0.0011793 Arg of perigee: 205.3710 deg Mean anomaly: 154.6922 deg Mean motion: 14.74320306 rev/day Decay rate: 4.24e-06 rev/day^2 Epoch rev: 5326 Checksum: 282
Satellite: RAIKO Catalog number: 38852 Epoch time: 13218.07382584 Element set: 340 Inclination: 051.6160 deg RA of node: 184.0336 deg Eccentricity: 0.0004489 Arg of perigee: 261.9162 deg Mean anomaly: 100.6538 deg Mean motion: 16.48474690 rev/day Decay rate: 2.4681979e-01 rev/day^2 Epoch rev: 4784 Checksum: 326
Satellite: FITSAT 1 Catalog number: 38853 Epoch time: 13184.86912902 Element set: 315 Inclination: 051.6252 deg RA of node: 351.6077 deg Eccentricity: 0.0011722 Arg of perigee: 245.9321 deg Mean anomaly: 114.2104 deg Mean motion: 16.39337660 rev/day Decay rate: 6.638326e-02 rev/day^2 Epoch rev: 4270 Checksum: 289
Satellite: TechEdSat Catalog number: 38854 Epoch time: 13124.93253577 Element set: 290 Inclination: 051.6449 deg RA of node: 297.0261 deg Eccentricity: 0.0010505 Arg of perigee: 310.8629 deg Mean anomaly: 049.0629 deg Mean motion: 16.38844728 rev/day Decay rate: 1.1592855e-01 rev/day^2 Epoch rev: 3329 Checksum: 325
Satellite: F 1 Catalog number: 38855 Epoch time: 13129.77714356 Element set: 287 Inclination: 051.5085 deg RA of node: 272.4145 deg Eccentricity: 0.0008326 Arg of perigee: 194.2908 deg Mean anomaly: 166.5495 deg Mean motion: 16.49710473 rev/day Decay rate: 2.7424026e-01 rev/day^2 Epoch rev: 3394 Checksum: 332
Satellite: WeWish Catalog number: 38856 Epoch time: 13069.98095549 Element set: 248 Inclination: 051.6166 deg RA of node: 215.0521 deg Eccentricity: 0.0008325 Arg of perigee: 316.0438 deg Mean anomaly: 044.8765 deg Mean motion: 16.41348316 rev/day Decay rate: 1.6701328e-01 rev/day^2 Epoch rev: 2458 Checksum: 318
Satellite: OSSI-1 Catalog number: 39131 Epoch time: 13188.41684431 Element set: 8 Inclination: 064.8841 deg RA of node: 114.8425 deg Eccentricity: 0.0051126 Arg of perigee: 026.6892 deg Mean anomaly: 350.0589 deg Mean motion: 16.22925119 rev/day Decay rate: 1.502874e-02 rev/day^2 Epoch rev: 1237 Checksum: 296
Satellite: BEESAT-3 Catalog number: 39134 Epoch time: 13248.61286704 Element set: 331 Inclination: 064.8790 deg RA of node: 315.8973 deg Eccentricity: 0.0004153 Arg of perigee: 214.5491 deg Mean anomaly: 295.0609 deg Mean motion: 15.00887088 rev/day Decay rate: 2.925e-05 rev/day^2 Epoch rev: 2089 Checksum: 313
Satellite: BEESAT-2 Catalog number: 39136 Epoch time: 13248.61698362 Element set: 323 Inclination: 064.8788 deg RA of node: 315.9046 deg Eccentricity: 0.0004019 Arg of perigee: 217.2150 deg Mean anomaly: 298.6086 deg Mean motion: 15.00800352 rev/day Decay rate: 2.570e-05 rev/day^2 Epoch rev: 2089 Checksum: 297
/EX
participants (1)
-
Ray Hoad